DW6873 Weather Reports


Display with metric or nautical units.
time (UTC)temp
F
wind
direction
speed
MPH
gust
MPH
rain 1hr
in
rain 24hr
in
rain mn
in
humidity
%
barometer
mb
20260904064536 54 139 0.0 0.0 0.00 0.00 0.00 98 1008.6
20260904063039 53 158 0.0 0.0 0.00 0.00 0.00 97 1008.5
20260904061509 53 158 0.0 0.0 0.00 0.00 0.00 97 1008.5
20260904060006 52 158 0.0 0.0 0.00 0.00 0.00 97 1008.5
20260904054602 53 158 0.0 0.0 0.00 0.00 0.00 97 1008.5
20260904053138 54 158 0.0 0.0 0.00 0.00 0.00 97 1008.4
20260904051601 54 158 0.0 0.0 0.00 0.00 0.00 97 1008.5
20260904050059 53 158 0.0 0.0 0.00 0.00 0.00 96 1008.4
20260904044554 54 158 0.0 0.0 0.00 0.00 0.00 95 1008.1
20260904043052 57 156 0.0 0.0 0.00 0.00 0.00 97 1008.1
20260904041600 56 165 0.0 0.0 0.00 0.00 0.00 95 1008.2
20260904040047 56 213 0.0 0.0 0.00 0.00 0.00 95 1008.0
20260904034541 58 213 0.0 0.0 0.00 0.00 0.00 96 1007.8
20260904033047 57 212 0.0 0.0 0.00 0.00 0.00 95 1007.8
20260904031538 57 181 0.0 0.0 0.00 0.00 0.00 94 1007.7
20260904030034 58 181 0.0 0.0 0.00 0.00 0.00 93 1007.5
20260904024502 60 52 0.0 0.0 0.00 0.00 0.00 95 1007.1
20260904023059 60 52 0.0 0.0 0.00 0.00 0.00 93 1006.9
20260904021551 60 52 0.0 0.0 0.00 0.00 0.00 92 1006.7
20260904020059 62 52 0.0 0.0 0.00 0.00 0.00 89 1006.3
20260904014620 64 52 0.0 0.0 0.00 0.00 0.00 85 1006.0
20260904013046 67 52 0.0 0.0 0.00 0.00 0.00 82 1005.8
20260904011543 70 52 0.0 0.0 0.00 0.00 0.00 81 1005.7
20260904010043 72 52 0.0 0.0 0.00 0.00 0.00 76 1005.7
20260904004541 75 52 0.0 0.0 0.00 0.00 0.00 71 1005.5
20260904003048 77 52 0.0 0.0 0.00 0.00 0.00 69 1005.4
20260904001538 79 65 0.0 0.0 0.00 0.00 0.00 63 1005.3
20260904000037 81 218 0.0 0.0 0.00 0.00 0.00 62 1005.2
20260903234533 79 219 0.0 0.0 0.00 0.00 0.00 65 1005.4
20260903233032 79 198 0.0 0.0 0.00 0.00 0.00 66 1005.2
20260903231628 78 97 0.0 0.0 0.00 0.00 0.00 66 1005.1
20260903230106 77 58 0.0 0.0 0.00 0.00 0.00 70 1004.8
20260903224557 76 98 0.0 0.0 0.00 0.00 0.00 71 1004.7
20260903223050 76 85 0.0 0.0 0.00 0.00 0.00 72 1004.7
20260903221549 75 87 0.0 0.0 0.00 0.00 0.00 74 1004.5
20260903220050 74 107 0.0 0.0 0.00 0.00 0.00 76 1004.2
20260903214546 73 89 0.0 0.0 0.00 0.00 0.00 77 1004.2
20260903213048 74 107 0.0 0.0 0.00 0.00 0.00 76 1004.2
20260903211538 73 66 0.0 0.0 0.00 0.00 0.00 79 1004.3
20260903210037 72 73 0.0 0.0 0.00 0.00 0.00 79 1004.1
20260903204534 71 60 0.0 0.0 0.00 0.00 0.00 80 1004.0
20260903203029 70 6 0.0 0.0 0.00 0.00 0.00 83 1004.1
20260903201532 69 17 0.0 0.0 0.00 0.00 0.00 86 1004.2
20260903200023 67 12 0.0 0.0 0.00 0.00 0.00 87 1004.1
20260903194522 67 15 0.0 0.0 0.00 0.00 0.00 88 1004.5
20260903193019 66 323 0.0 0.0 0.00 0.00 0.00 90 1004.3
20260903191519 66 328 0.0 0.0 0.00 0.00 0.00 90 1004.4
20260903190023 66 336 0.0 0.0 0.00 0.00 0.00 90 1004.3
20260903184518 66 355 0.0 0.0 0.00 0.00 0.00 89 1004.5
20260903183015 66 310 0.0 0.0 0.00 0.00 0.00 91 1004.4
20260903181518 65 26 0.0 0.0 0.00 0.00 0.00 92 1004.3
20260903180036 64 316 0.0 0.0 0.00 0.00 0.00 92 1004.6
20260903174515 65 348 0.0 0.0 0.00 0.00 0.00 92 1004.4
20260903173012 64 25 0.0 1.0 0.00 0.00 0.00 93 1002.9
20260903171512 63 9 0.0 0.0 0.00 0.00 0.00 95 1003.1
20260903170015 64 342 0.0 0.0 0.00 0.00 0.00 94 1003.4
20260903164510 64 332 0.0 0.0 0.00 0.00 0.00 93 1003.5
20260903163042 64 51 0.0 0.0 0.00 0.00 0.00 91 1003.3
20260903161551 65 23 0.0 0.0 0.00 0.00 0.00 90 1003.0
20260903160041 64 127 0.0 0.0 0.00 0.00 0.00 90 1002.9
20260903154536 64 51 0.0 1.0 0.00 0.00 0.00 89 1002.4
20260903153034 64 43 0.0 0.0 0.00 0.00 0.00 88 1002.0
20260903151543 64 26 0.0 0.0 0.00 0.00 0.00 88 1002.2
20260903150038 65 311 0.0 0.0 0.00 0.00 0.00 86 1002.4
20260903144529 65 36 0.0 0.0 0.00 0.00 0.00 85 1002.5
20260903143031 64 29 0.0 0.0 0.00 0.00 0.00 85 1002.6
20260903141530 64 39 0.0 1.0 0.00 0.00 0.00 85 1002.8
20260903140037 64 18 0.0 1.0 0.00 0.00 0.00 85 1002.7
20260903134521 0 0.0 0.0 0.00 0.00 0.00 1002.8
20260903133017 0 0.0 0.0 0.00 0.00 0.00 1002.9
20260903131512 0 0.0 0.0 0.00 0.00 0.00 1003.0
20260903130005 0 0.0 0.0 0.00 0.00 0.00 1003.2
20260903124501 0 0.0 0.0 0.00 0.00 0.00 1003.1
20260903123056 0 0.0 0.0 0.00 0.00 0.00 1002.7
20260903121552 0 0.0 0.0 0.00 0.00 0.00 1002.4
20260903120050 0 0.0 0.0 0.00 0.00 0.00 1002.0
20260903114600 0 0.0 0.0 0.00 0.00 0.00 1002.0
20260903113036 0 0.0 0.0 0.00 0.00 0.00 1002.3
20260903111532 0 0.0 0.0 0.00 0.00 0.00 1002.0
20260903110104 0 0.0 0.0 0.00 0.00 0.00 1001.7
20260903104600 0 0.0 0.0 0.00 0.00 0.00 1001.5
20260903103018 0 0.0 0.0 0.00 0.00 0.00 1001.7
20260903101513 64 103 0.0 0.0 0.00 0.00 0.00 78 1002.0
20260903100112 64 108 0.0 1.0 0.00 0.00 0.00 77 1002.2
20260903094542 64 101 0.0 1.0 0.00 0.00 0.00 76 1001.8
20260903093051 64 132 0.0 0.0 0.00 0.00 0.00 75 1002.2
20260903091533 64 105 0.0 0.0 0.00 0.00 0.00 74 1002.7
20260903090034 65 107 0.0 0.0 0.00 0.00 0.00 73 1002.8
20260903090032 65 77 0.0 0.0 0.00 0.00 0.00 73 1002.8
20260903084534 65 46 0.0 0.0 0.00 0.00 0.00 73 1002.9
20260903083031 65 54 0.0 1.0 0.00 0.00 0.00 73 1002.9
20260903081534 65 50 0.0 0.0 0.00 0.00 0.00 73 1002.9
20260903080026 64 63 0.0 0.0 0.00 0.00 0.00 73 1003.2
20260903074522 65 83 0.0 0.0 0.00 0.00 0.00 73 1003.4
20260903073118 65 98 0.0 0.0 0.00 0.00 0.00 72 1003.9
20260903071519 66 92 0.0 0.0 0.00 0.00 0.00 71 1004.3
20260903070020 66 75 0.0 0.0 0.00 0.00 0.00 71 1004.3